This is the latest recevied weather packets stored in our database for station/object KE8WMS. If no packets are shown the sender has not sent any weather packets the latest 10 day(s).
| Time | Temp. | Humidity | Pressure | Rain* | Wind** | Luminosity | Snow |
|---|---|---|---|---|---|---|---|
| 1777495767 | 8.33° C | 99% | 1006.8 hPa | 0 mm | - | 45 W/m² | - |
| 1777495464 | 8.33° C | 99% | 1006.7 hPa | 0 mm | - | 42 W/m² | - |
| 1777495160 | 8.33° C | 99% | 1006.7 hPa | 0 mm | - | 36 W/m² | - |
| 1777494857 | 8.33° C | 99% | 1006.8 hPa | 0 mm | - | 30 W/m² | - |
| 1777494554 | 8.33° C | 99% | 1006.3 hPa | 0 mm | - | 39 W/m² | - |
| 1777494252 | 8.33° C | 99% | 1006.4 hPa | 0 mm | - | 41 W/m² | - |
| 1777493948 | 8.33° C | 99% | 1006.5 hPa | 0 mm | - | 44 W/m² | - |
| 1777493646 | 8.33° C | 99% | 1006.2 hPa | 0 mm | - | 43 W/m² | - |
| 1777493343 | 8.33° C | 99% | 1006.3 hPa | 0 mm | - | 57 W/m² | - |
| 1777493040 | 8.33° C | 99% | 1006.4 hPa | 0 mm | - | 57 W/m² | - |
| 1777492737 | 8.33° C | 99% | 1006 hPa | 0 mm | - | 55 W/m² | - |
| 1777492437 | 8.33° C | 99% | 1006.2 hPa | 0 mm | - | 56 W/m² | - |
| 1777492135 | 8.33° C | 99% | 1006.1 hPa | 0 mm | - | 66 W/m² | - |
| 1777491831 | 8.33° C | 99% | 1006.1 hPa | 0 mm | - | 62 W/m² | - |
| 1777491527 | 8.33° C | 99% | 1006.1 hPa | 0 mm | - | 67 W/m² | - |
| 1777491225 | 8.33° C | 99% | 1006.1 hPa | 0 mm | - | 74 W/m² | - |
| 1777490921 | 8.33° C | 99% | 1006.2 hPa | 0 mm | - | 74 W/m² | - |
| 1777490617 | 8.33° C | 99% | 1006.1 hPa | 0 mm | - | 75 W/m² | - |
| 1777490313 | 8.33° C | 99% | 1006.1 hPa | 0 mm | - | 74 W/m² | - |
| 1777490011 | 8.33° C | 99% | 1005.8 hPa | 0 mm | - | 75 W/m² | - |
| 1777489709 | 8.33° C | 99% | 1005.9 hPa | 0 mm | - | 77 W/m² | - |
| 1777489405 | 8.89° C | 99% | 1005.8 hPa | 0 mm | - | 69 W/m² | - |
| 1777489102 | 8.89° C | 99% | 1006.1 hPa | 0 mm | - | 68 W/m² | - |
| 1777488799 | 8.89° C | 99% | 1006 hPa | 0 mm | - | 70 W/m² | - |
| 1777488497 | 8.89° C | 99% | 1006.1 hPa | 0 mm | - | 72 W/m² | - |
* Rain latest hour (hover to see other rain measurements)
** Current wind speed in m/s (hover to see current wind gust speed)